Weather in Usalka

Russia / Tyumen Oblast     57°19′14″N   66°57′51″E
temp.,
°C
wind,
m/s
gust,
m/s
humid.,
%
clouds,
%
prec.,
mm/h
press.,
hPa
HPBL,
m
25 june, sat
sat2523:00+14nw118992 0.0 100610
02:00+14sw348191 0.0 100677
05:00+13sw34862 0.0 100573
08:00+18wsw466653 0.0 1003401
11:00+22wsw465199 0.0 10021364
14:00+23w46455 0.0 10012062
17:00+22wnw365721 0.0 999929
20:00+18wsw357388 0.1 998101
26 june, sun
sun2623:00+14nw2290100 0.8 99840
02:00+13nw249599 0.3 997132
05:00+11nw379818 0.3 997206
08:00+12nnw5690100 0.1 999568
11:00+13nw5671100 0.1 9991072
14:00+12wnw4677100 0.2 1000977
17:00+12wnw4678100 0.6 1001985
20:00+9nw3785100 0.1 1001652
27 june, mon
mon2723:00+8wnw4896100 0.6 1002631
02:00+8w4998100 0.2 1002609
05:00+8wnw51297100 0.8 1002712
08:00+9wnw61196100 0.1 1003761
11:00+10wnw61089100 0.1 1004872
14:00+11wnw5879100 0.1 1005932
17:00+14wnw5769100 0.1 10051317
20:00+11wnw367783 0.0 1005457
28 june, tue
tue2823:00+9sw2488100 0.1 100589
02:00+9se2295100 1.3 100450
05:00+9n119696 1.4 100373
08:00+11ne3492100 0.1 1003515
11:00+11nne4590100 0.2 1003540
14:00+11n4679100 0.3 1003626
17:00+11n4675100 0.6 1003706
20:00+10n277899 0.1 1003300
29 june, wed
wed2923:00+8nnw41091100 0.4 1002431
02:00+7nnw51198100 1.1 1001455
05:00+7nnw71395100 1.4 1000685
08:00+8nnw71286100 0.0 1000718
11:00+9nnw71276100 0.0 1000991
14:00+9nnw81387100 0.1 10001000
17:00+9nnw81381100 0.1 1002908
20:00+10nnw61474100 0.1 10031177